When you browse on this site, cookies collect data to enhance your experience and personalize the content and advertising you see.
Visit our Privacy Policy to learn more. By continuing to use the site, you agree to this use of cookies and data.
  • In Slovakia
  • List of Countries
  • For 7 days
  • Water Temperature
  • Weather Map
  • Weather Widgets
  • user-avatar
    Login

    Hourly Weather Neuquén

    Today, 22 September, Sunday

    Time Temperature Precipitation Wind Pressure Humidity
    00:00 +10°C° 0 mm 1 mps 740 mmHg 37%
    01:00 +10°C° 0 mm 1 mps 740 mmHg 37%
    02:00 +9°C° 0 mm 1 mps 740 mmHg 38%
    03:00 +8°C° 0 mm 2 mps 740 mmHg 38%
    04:00 +8°C° 0 mm 2 mps 740 mmHg 39%
    05:00 +9°C° 0 mm 2 mps 740 mmHg 36%
    06:00 +11°C° 0 mm 3 mps 740 mmHg 33%
    07:00 +12°C° 0 mm 3 mps 741 mmHg 31%
    08:00 +14°C° 0 mm 5 mps 741 mmHg 27%
    09:00 +16°C° 0 mm 7 mps 741 mmHg 23%
    10:00 +18°C° 0 mm 8 mps 741 mmHg 19%
    11:00 +19°C° 0 mm 9 mps 739 mmHg 18%
    12:00 +21°C° 0 mm 10 mps 738 mmHg 17%
    13:00 +22°C° 0 mm 10 mps 737 mmHg 17%
    14:00 +23°C° 0 mm 10 mps 737 mmHg 17%
    15:00 +23°C° 0 mm 9 mps 736 mmHg 16%
    16:00 +23°C° 0 mm 9 mps 735 mmHg 16%
    17:00 +22°C° 0 mm 7 mps 735 mmHg 19%
    18:00 +20°C° 0 mm 6 mps 734 mmHg 23%
    19:00 +18°C° 0 mm 4 mps 734 mmHg 26%
    20:00 +18°C° 0 mm 4 mps 734 mmHg 28%
    21:00 +17°C° 0 mm 4 mps 734 mmHg 30%
    22:00 +16°C° 0 mm 3 mps 734 mmHg 32%
    23:00 +15°C° 0 mm 4 mps 734 mmHg 33%

    Tomorrow, 23 September, Monday

    Time Temperature Precipitation Wind Pressure Humidity
    00:00 +14°C° 0 mm 4 mps 734 mmHg 33%
    01:00 +13°C° 0 mm 4 mps 733 mmHg 33%
    02:00 +13°C° 0 mm 5 mps 734 mmHg 35%
    03:00 +12°C° 0 mm 5 mps 734 mmHg 37%
    04:00 +12°C° 0 mm 5 mps 734 mmHg 39%
    05:00 +12°C° 0 mm 4 mps 734 mmHg 36%
    06:00 +13°C° 0 mm 4 mps 735 mmHg 33%
    07:00 +14°C° 0 mm 4 mps 735 mmHg 30%
    08:00 +18°C° 0 mm 4 mps 736 mmHg 25%
    09:00 +20°C° 0 mm 4 mps 737 mmHg 19%
    10:00 +22°C° 0 mm 4 mps 737 mmHg 14%
    11:00 +24°C° 0 mm 3 mps 737 mmHg 13%
    12:00 +25°C° 0 mm 3 mps 737 mmHg 13%
    13:00 +25°C° 0 mm 3 mps 737 mmHg 12%
    14:00 +25°C° 0 mm 3 mps 737 mmHg 12%
    15:00 +25°C° 0 mm 4 mps 737 mmHg 13%
    16:00 +25°C° 0 mm 4 mps 737 mmHg 13%
    17:00 +23°C° 0 mm 4 mps 737 mmHg 16%
    18:00 +21°C° 0 mm 3 mps 738 mmHg 18%
    19:00 +19°C° 0 mm 3 mps 738 mmHg 21%
    20:00 +18°C° 0 mm 2 mps 738 mmHg 22%
    21:00 +17°C° 0 mm 2 mps 738 mmHg 23%
    22:00 +18°C° 0 mm 1 mps 739 mmHg 24%
    23:00 +16°C° 0 mm 1 mps 739 mmHg 24%

    Day after tomorrow, 24 September, Tuesday

    Time Temperature Precipitation Wind Pressure Humidity
    00:00 +16°C° 0 mm 1 mps 738 mmHg 25%
    01:00 +16°C° 0 mm 2 mps 738 mmHg 25%
    02:00 +15°C° 0 mm 2 mps 738 mmHg 27%
    03:00 +15°C° 0 mm 2 mps 738 mmHg 28%
    04:00 +15°C° 0 mm 2 mps 738 mmHg 30%
    05:00 +16°C° 0 mm 2 mps 739 mmHg 29%
    06:00 +18°C° 0 mm 2 mps 739 mmHg 28%
    07:00 +21°C° 0 mm 1 mps 739 mmHg 27%
    08:00 +21°C° 0 mm 2 mps 739 mmHg 24%
    09:00 +24°C° 0 mm 2 mps 740 mmHg 21%
    10:00 +26°C° 0 mm 2 mps 740 mmHg 17%
    11:00 +27°C° 0 mm 3 mps 739 mmHg 16%
    12:00 +28°C° 0 mm 3 mps 739 mmHg 15%
    13:00 +29°C° 0 mm 3 mps 739 mmHg 14%
    14:00 +29°C° 0 mm 3 mps 738 mmHg 15%
    15:00 +29°C° 0 mm 3 mps 738 mmHg 16%
    16:00 +29°C° 0 mm 3 mps 737 mmHg 16%
    17:00 +27°C° 0 mm 3 mps 738 mmHg 20%
    18:00 +25°C° 0 mm 3 mps 738 mmHg 24%
    19:00 +22°C° 0 mm 3 mps 738 mmHg 27%
    20:00 +22°C° 0 mm 3 mps 738 mmHg 30%
    21:00 +21°C° 0 mm 3 mps 739 mmHg 32%
    22:00 +20°C° 0 mm 3 mps 739 mmHg 35%
    23:00 +19°C° 0 mm 4 mps 739 mmHg 37%

    25 September, Wednesday

    Time Temperature Precipitation Wind Pressure Humidity
    00:00 +19°C° 0 mm 4 mps 739 mmHg 39%
    01:00 +18°C° 0 mm 4 mps 739 mmHg 42%
    02:00 +17°C° 0 mm 4 mps 739 mmHg 43%
    03:00 +17°C° 0 mm 4 mps 739 mmHg 45%
    04:00 +15°C° 0 mm 4 mps 738 mmHg 46%
    05:00 +17°C° 0 mm 4 mps 738 mmHg 44%
    06:00 +18°C° 0 mm 4 mps 739 mmHg 43%
    07:00 +19°C° 0 mm 4 mps 739 mmHg 41%
    08:00 +21°C° 0 mm 4 mps 739 mmHg 37%
    09:00 +22°C° 0 mm 4 mps 738 mmHg 32%
    10:00 +25°C° 0 mm 4 mps 738 mmHg 28%
    11:00 +26°C° 0 mm 3 mps 738 mmHg 25%
    12:00 +27°C° 0 mm 2 mps 737 mmHg 22%
    13:00 +28°C° 0 mm 2 mps 737 mmHg 20%
    14:00 +29°C° 0 mm 2 mps 736 mmHg 19%
    15:00 +29°C° 0 mm 2 mps 736 mmHg 18%
    16:00 +29°C° 0 mm 2 mps 735 mmHg 17%
    17:00 +28°C° 0 mm 3 mps 736 mmHg 19%
    18:00 +26°C° 0 mm 3 mps 736 mmHg 21%
    19:00 +25°C° 0 mm 4 mps 736 mmHg 23%
    20:00 +23°C° 0 mm 4 mps 736 mmHg 26%
    21:00 +22°C° 0 mm 5 mps 736 mmHg 29%
    22:00 +21°C° 0 mm 5 mps 736 mmHg 32%
    23:00 +21°C° 0 mm 5 mps 736 mmHg 34%

    26 September, Thursday

    Time Temperature Precipitation Wind Pressure Humidity
    00:00 +20°C° 0 mm 5 mps 736 mmHg 36%
    01:00 +19°C° 0 mm 5 mps 736 mmHg 38%
    02:00 +19°C° 0 mm 5 mps 736 mmHg 40%
    03:00 +17°C° 0 mm 6 mps 736 mmHg 42%
    04:00 +16°C° 0 mm 6 mps 737 mmHg 44%
    05:00 +17°C° 0 mm 8 mps 737 mmHg 44%
    06:00 +17°C° 0 mm 9 mps 737 mmHg 44%
    07:00 +17°C° 0 mm 10 mps 737 mmHg 44%
    08:00 +19°C° 0 mm 11 mps 737 mmHg 40%
    09:00 +22°C° 0 mm 11 mps 737 mmHg 35%
    10:00 +24°C° 0 mm 11 mps 737 mmHg 31%
    11:00 +26°C° 0 mm 11 mps 736 mmHg 29%
    12:00 +28°C° 0 mm 11 mps 736 mmHg 26%
    13:00 +29°C° 0 mm 10 mps 735 mmHg 23%
    14:00 +31°C° 0 mm 9 mps 734 mmHg 22%
    15:00 +31°C° 0 mm 9 mps 733 mmHg 20%
    16:00 +32°C° 0 mm 8 mps 732 mmHg 18%
    17:00 +29°C° 0 mm 8 mps 732 mmHg 21%
    18:00 +28°C° 0 mm 8 mps 731 mmHg 23%
    19:00 +26°C° 0 mm 7 mps 731 mmHg 25%
    20:00 +26°C° 0 mm 8 mps 731 mmHg 26%
    21:00 +24°C° 0 mm 8 mps 730 mmHg 28%
    22:00 +24°C° 0 mm 9 mps 730 mmHg 29%
    23:00 +23°C° 0 mm 9 mps 730 mmHg 29%

    27 September, Friday

    Time Temperature Precipitation Wind Pressure Humidity
    00:00 +23°C° 0 mm 9 mps 729 mmHg 29%
    01:00 +23°C° 0 mm 9 mps 728 mmHg 28%
    02:00 +22°C° 0 mm 9 mps 728 mmHg 31%
    03:00 +21°C° 0 mm 8 mps 728 mmHg 33%
    04:00 +21°C° 0 mm 8 mps 728 mmHg 35%
    05:00 +21°C° 0 mm 7 mps 728 mmHg 35%
    06:00 +21°C° 0 mm 6 mps 729 mmHg 34%
    07:00 +22°C° 0 mm 6 mps 729 mmHg 34%
    08:00 +23°C° 0 mm 7 mps 729 mmHg 32%
    09:00 +26°C° 0 mm 7 mps 729 mmHg 30%
    10:00 +27°C° 0 mm 8 mps 729 mmHg 28%
    11:00 +28°C° 0 mm 8 mps 729 mmHg 26%
    12:00 +28°C° 0 mm 8 mps 729 mmHg 24%
    13:00 +28°C° 0 mm 9 mps 729 mmHg 23%
    14:00 +27°C° 0 mm 9 mps 729 mmHg 22%
    15:00 +26°C° 0 mm 10 mps 729 mmHg 21%
    16:00 +24°C° 0 mm 10 mps 729 mmHg 21%
    17:00 +23°C° 0 mm 10 mps 729 mmHg 24%
    18:00 +21°C° 0 mm 10 mps 730 mmHg 27%
    19:00 +18°C° 0 mm 9 mps 730 mmHg 30%
    20:00 +18°C° 0 mm 10 mps 731 mmHg 33%
    21:00 +17°C° 0 mm 10 mps 731 mmHg 36%
    22:00 +16°C° 0 mm 10 mps 731 mmHg 38%
    23:00 +14°C° 0 mm 10 mps 731 mmHg 41%
    Show more